Location: Kirtland Hills
(41.6239°N, 81.3071°W)
Time: 17:14:40
(UTC+00:00)

CSL-04 Rocket - Pass Details

Date: 29 October 2020
Orbit: 805 x 861 km, 98.9° (Epoch: 28 November)

Event Time Altitude Azimuth Distance (km) Brightness Sun altitude
Exits shadow 23:39:10 - 136° (SE) 2,919 6.1 -14.8°
Reaches altitude 10° 23:40:21 10° 132° (SE) 2,489 5.8 -15.0°
Maximum altitude 23:45:21 36° 67° (ENE) 1,326 4.2 -15.9°
Drops below altitude 10° 23:50:20 10° 3° (N) 2,483 6.1 -16.8°
Sets 23:52:51 0° 355° (N) 3,414 6.9 -17.3°
